Weather History for Columbia, MO

Change the Weather History Date:

Thursday, June 13, 2013

  Actual Average Record
Temperature  
Mean Temperature 76 °F 72 °F  
Max Temperature 86 °F 83 °F 100 °F (1953)
Min Temperature 66 °F 62 °F 42 °F (1903)
Degree Days  
Heating Degree Days 0 0  
Month to date heating degree days 6 9  
Since 1 June heating degree days 6 9  
Since 1 July heating degree days 4902 5021  
Cooling Degree Days 11 8  
Month to date cooling degree days 60 81  
Year to date cooling degree days 194 184  
Since 1 June cooling degree days 60 81  
Growing Degree Days 26 (Base 50)    
Moisture  
Dew Point 60 °F    
Average Humidity 58    
Maximum Humidity 73    
Minimum Humidity 42    
Precipitation  
Precipitation 0.00 in 0.15 in 1.41 in (1927)
Month to date precipitation 0.32 1.94  
Year to date precipitation 27.03 18.49  
Snow  
Snow 0.00 in 0.00 in 0.00 in (2012)
Month to date snowfall 0.0 0.0  
Since 1 June snowfall 0.0 0.0  
Since 1 July snowfall 35.0 18.0  
Snow Depth 0.00 in    
Sea Level Pressure  
Sea Level Pressure 29.97 in    
Wind  
Wind Speed 9 mph (NNW)    
Max Wind Speed 23 mph    
Max Gust Speed 31 mph    
Visibility 10 miles    
Events      
T = Trace of Precipitation, MM = Missing Value Source: NWS Daily Summary

Daily Weather History Graph

Daily Weather History Graph

Search for Another Location

Airport:

Trip Planner

Search our weather history database for the weather conditions in past years. The results will help you decide how hot, cold, wet, or windy it might be!

Date:

Astronomy

Jun. 13, 2013 Rise Set
Actual Time 5:43 AM CDT 8:35 PM CDT
Civil Twilight 5:11 AM CDT 9:06 PM CDT
Nautical Twilight 4:31 AM CDT 9:47 PM CDT
Astronomical Twilight 3:45 AM CDT 10:33 PM CDT
Moon 10:18 AM CDT (6/13) 11:44 PM CDT (6/13)
Length of Visible Light 15h 55m
Length of Day
14h 51m
Waxing Crescent, 22% of the Moon is Illuminated
Jun 13
Waxing Crescent
Jun 16
First Quarter
Jun 23
Full
Jun 29
Last Quarter
Jul 8
New

Hourly Weather History & Observations

Time (CDT) Temp. Heat Index Dew Point Humidity Pressure Visibility Wind Dir Wind Speed Gust Speed Precip Events Conditions
12:54 AM 78.1 °F - 64.0 °F 62% 29.83 in 10.0 mi NW 11.5 mph - N/A   Clear
1:54 AM 75.0 °F - 61.0 °F 62% 29.86 in 10.0 mi NW 18.4 mph 25.3 mph N/A   Clear
2:54 AM 72.0 °F - 59.0 °F 64% 29.87 in 10.0 mi NW 12.7 mph - N/A   Clear
3:54 AM 68.0 °F - 57.9 °F 70% 29.89 in 10.0 mi NW 13.8 mph - N/A   Clear
4:54 AM 66.9 °F - 57.9 °F 73% 29.91 in 10.0 mi NW 13.8 mph - N/A   Scattered Clouds
5:40 AM 66.9 °F - 57.9 °F 73% 29.96 in 10.0 mi NW 13.8 mph - N/A   Overcast
5:54 AM 66.9 °F - 57.9 °F 73% 29.93 in 10.0 mi WNW 11.5 mph - N/A   Overcast
6:14 AM 66.9 °F - 57.0 °F 70% 29.97 in 10.0 mi NW 10.4 mph - N/A   Overcast
6:29 AM 66.9 °F - 57.0 °F 70% 29.97 in 10.0 mi NW 12.7 mph - N/A   Mostly Cloudy
6:54 AM 66.9 °F - 57.9 °F 73% 29.95 in 10.0 mi NW 11.5 mph - N/A   Overcast
7:38 AM 68.0 °F - 57.9 °F 70% 29.99 in 10.0 mi NW 11.5 mph - N/A   Scattered Clouds
7:54 AM 68.0 °F - 57.9 °F 70% 29.97 in 10.0 mi NW 11.5 mph - N/A   Mostly Cloudy
8:54 AM 70.0 °F - 59.0 °F 68% 29.99 in 10.0 mi NNW 11.5 mph - N/A   Overcast
9:36 AM 72.0 °F - 60.1 °F 66% 30.02 in 10.0 mi NNW 10.4 mph 19.6 mph N/A   Scattered Clouds
9:54 AM 73.9 °F - 61.0 °F 64% 30.00 in 10.0 mi North 11.5 mph - N/A   Clear
10:54 AM 75.9 °F - 62.1 °F 62% 30.00 in 10.0 mi North 8.1 mph - N/A   Clear
11:29 AM 77.0 °F - 63.0 °F 62% 30.03 in 10.0 mi NNW 10.4 mph 17.3 mph N/A   Mostly Cloudy
11:41 AM 78.1 °F - 63.0 °F 60% 30.03 in 10.0 mi North 10.4 mph - N/A   Scattered Clouds
11:51 AM 78.8 °F - 62.6 °F 57% 30.04 in 10.0 mi NW 12.7 mph - N/A   Mostly Cloudy
11:54 AM 77.0 °F - 62.1 °F 60% 30.01 in 10.0 mi NW 10.4 mph - N/A   Mostly Cloudy
12:18 PM 79.0 °F - 62.1 °F 56% 30.04 in 10.0 mi North 10.4 mph - N/A   Mostly Cloudy
12:54 PM 81.0 °F 82.2 °F 63.0 °F 54% 30.01 in 10.0 mi North 8.1 mph - N/A   Mostly Cloudy
1:54 PM 82.9 °F 83.3 °F 61.0 °F 47% 30.01 in 10.0 mi North 6.9 mph - N/A   Scattered Clouds
2:54 PM 82.0 °F 82.7 °F 61.0 °F 49% 30.00 in 10.0 mi ENE 8.1 mph - N/A   Scattered Clouds
3:54 PM 82.9 °F 83.2 °F 60.1 °F 46% 29.99 in 10.0 mi ENE 8.1 mph - N/A   Mostly Cloudy
4:54 PM 86.0 °F 85.7 °F 60.1 °F 41% 30.00 in 10.0 mi NNW 10.4 mph - N/A   Scattered Clouds
5:54 PM 84.0 °F 83.8 °F 59.0 °F 43% 29.99 in 10.0 mi NNE 4.6 mph - N/A   Partly Cloudy
6:54 PM 81.0 °F 81.6 °F 60.1 °F 49% 30.01 in 10.0 mi North 5.8 mph - N/A   Clear
7:54 PM 78.1 °F - 61.0 °F 56% 30.01 in 10.0 mi NNE 5.8 mph - N/A   Clear
8:54 PM 73.9 °F - 60.1 °F 62% 29.96 in 10.0 mi East 6.9 mph - N/A   Clear
9:54 PM 72.0 °F - 57.9 °F 61% 29.96 in 10.0 mi SSE 4.6 mph - N/A   Clear
10:54 PM 71.1 °F - 59.0 °F 66% 29.99 in 10.0 mi West 4.6 mph - N/A   Clear
11:54 PM 71.1 °F - 59.0 °F 66% 29.99 in 10.0 mi Calm Calm - N/A   Clear